This demonstration page uses our WeatherBlox Daily Observations layout. Learn more.

Left ArrowRight Arrow

39.12711, -84.51439

Hourly Observations for July 4, 2018

Temp ( °F °C ) Dew Point ( °F °C ) Humidity (%) Winds ( mph kmh ) Pressure ( in mb ) Visibility ( mi km ) Precip ( " mm )
12:53 am 00:53 Clear with Mist and Fog 73 22.8 73 22.8 100 100 Calm 30.20 1023 6 10 0.00 0.00
1:53 am 01:53 Clear with Mist and Fog 72 22.2 72 22.2 100 100 Calm 30.20 1023 6 10 0.00 0.00
2:53 am 02:53 Clear 72 22.2 72 22.2 100 100 Calm 30.20 1023 7 11 0.00 0.00
3:53 am 03:53 Clear with Mist and Fog 71 21.7 71 21.7 100 100 Calm 30.20 1023 6 10 0.00 0.00
4:53 am 04:53 Clear with Mist and Fog 71 21.7 71 21.7 100 100 Calm 30.20 1023 6 10 0.00 0.00
5:53 am 05:53 Clear with Mist and Fog 71 21.7 71 21.7 100 100 Calm 30.22 1023 5 8 0.00 0.00
6:53 am 06:53 Sunny 71 21.7 71 21.7 100 100 Calm 30.23 1024 10 16 0.00 0.00
7:53 am 07:53 Sunny 75 23.9 73 22.8 94 94 Calm 30.23 1024 10 16 0.00 0.00
8:53 am 08:53 Sunny 78 25.6 74 23.3 87 87 Calm 30.24 1024 10 16 0.00 0.00
9:53 am 09:53 Sunny 82 27.8 76 24.4 82 82 Calm 30.24 1024 10 16 0.00 0.00
10:53 am 10:53 Sunny 87 30.6 78 25.6 75 75 Calm 30.24 1024 10 16 0.00 0.00
11:53 am 11:53 Sunny 91 32.8 77 25 64 64 Calm 30.24 1024 10 16 0.00 0.00
12:53 pm 12:53 Partly Cloudy 91 32.8 76 24.4 61 61 NE 5 7 30.24 1024 10 16 0.00 0.00
1:53 pm 13:53 Partly Cloudy 93 33.9 75 23.9 56 56 NNE 3 6 30.22 1024 10 16 0.00 0.00
2:53 pm 14:53 Partly Cloudy 94 34.4 76 24.4 56 56 NE 5 7 30.21 1023 10 16 0.00 0.00
3:53 pm 15:53 Mostly Cloudy 94 34.4 74 23.3 52 52 E 3 6 30.20 1023 10 16 0.00 0.00
4:53 pm 16:53 Mostly Cloudy 96 35.6 72 22.2 46 46 Calm 30.18 1022 10 16 0.00 0.00
5:53 pm 17:53 Partly Cloudy 94 34.4 72 22.2 49 49 Calm 30.16 1022 10 16 0.00 0.00
6:53 pm 18:53 Mostly Cloudy 90 32.2 79 26.1 70 70 N 6 9 30.18 1022 10 16 0.00 0.00
7:53 pm 19:53 Mostly Cloudy 88 31.1 77 25 70 70 ENE 8 13 30.19 1023 10 16 0.00 0.00
8:53 pm 20:53 Partly Cloudy 85 29.4 76 24.4 75 75 NE 5 7 30.20 1023 10 16 0.00 0.00
9:53 pm 21:53 Clear 83 28.3 76 24.4 79 79 Calm 30.21 1023 10 16 0.00 0.00
10:53 pm 22:53 Clear 78 25.6 76 24.4 93 93 Calm 30.23 1024 10 16 0.00 0.00
11:53 pm 23:53 Clear 78 25.6 76 24.4 93 93 Calm 30.22 1024 7 11 0.00 0.00

Powered by AerisWeather